Weather History for Wekweeti, NO

Change the Weather History Date:

Sunday, March 30, 2014

  Actual Average Record
Temperature  
Mean Temperature -20 °F -  
Max Temperature -2 °F - - ()
Min Temperature -38 °F - - ()
Degree Days  
Heating Degree Days 85    
Moisture  
Dew Point -29 °F    
Average Humidity 64    
Maximum Humidity 83    
Minimum Humidity 50    
Precipitation  
Precipitation 0.00 in - - ()
Sea Level Pressure  
Sea Level Pressure 30.41 in    
Wind  
Wind Speed 3 mph ()    
Max Wind Speed 13 mph    
Max Gust Speed 18 mph    
Visibility 8.8 miles    
Events      
T = Trace of Precipitation, MM = Missing Value Source: Averaged Metar Reports

Daily Weather History Graph

Daily Weather History Graph

Search for Another Location

Airport:

Trip Planner

Search our weather history database for the weather conditions in past years. The results will help you decide how hot, cold, wet, or windy it might be!

Date:

Astronomy

Mar. 30, 2014 Rise Set
Actual Time 7:00 AM MDT 8:22 PM MDT
Civil Twilight 6:11 AM MDT 9:12 PM MDT
Nautical Twilight 5:08 AM MDT 10:15 PM MDT
Astronomical Twilight 3:48 AM MDT 11:38 PM MDT
Moon 6:49 AM MDT (3/30) 8:52 PM MDT (3/30)
Length of Visible Light 15h 00m
Length of Day
13h 21m
Waning Crescent, 0% of the Moon is Illuminated
Mar 30
Waning Crescent
Mar 30
New
Apr 7
First Quarter
Apr 15
Full
Apr 22
Last Quarter

Hourly Weather History & Observations

Time (MDT) Temp. Windchill Dew Point Humidity Pressure Visibility Wind Dir Wind Speed Gust Speed Precip Events Conditions
12:00 AM -27.4 °F - -31.0 °F 83% 30.49 in 9.0 mi Calm Calm - N/A   Clear
1:00 AM -31.0 °F - -36.4 °F 75% 30.50 in 9.0 mi Calm Calm - N/A   Clear
2:00 AM -31.0 °F - -36.4 °F 75% 30.49 in 9.0 mi Variable 2.3 mph - N/A   Clear
3:00 AM -32.8 °F - -40.0 °F 68% 30.50 in 9.0 mi Calm Calm - N/A   Clear
4:00 AM -31.0 °F - -38.2 °F 68% 30.50 in 9.0 mi Calm Calm - N/A   Clear
5:00 AM -34.6 °F - -41.8 °F 68% 30.51 in 9.0 mi Calm Calm - N/A   Clear
6:00 AM -36.4 °F - -43.6 °F 67% 30.51 in 9.0 mi Calm Calm - N/A   Clear
7:00 AM -36.4 °F - -43.6 °F 67% 30.51 in 9.0 mi Calm Calm - N/A   Clear
7:07 AM -36.4 °F - -43.6 °F 67% 30.51 in 5.0 mi Calm Calm - N/A   Haze
7:17 AM -36.4 °F - -43.6 °F 67% 30.50 in 9.0 mi Calm Calm - N/A   Clear
8:00 AM -38.2 °F - -45.4 °F 67% 30.51 in 9.0 mi Calm Calm - N/A   Clear
9:00 AM -32.8 °F - -40.0 °F 68% 30.50 in 9.0 mi Calm Calm - N/A   Clear
10:00 AM -27.4 °F - -32.8 °F 75% 30.48 in 9.0 mi WNW 2.3 mph - N/A   Clear
11:00 AM -22.0 °F -35.6 °F -29.2 °F 69% 30.46 in 9.0 mi West 4.6 mph - N/A   Clear
12:00 PM -16.6 °F -26.8 °F -23.8 °F 70% 30.44 in 9.0 mi West 3.5 mph - N/A   Clear
1:00 PM -9.4 °F -26.8 °F -20.2 °F 59% 30.42 in 9.0 mi SW 9.2 mph - N/A   Clear
2:00 PM -7.6 °F -27.5 °F -18.4 °F 59% 30.40 in 9.0 mi SW 12.7 mph - N/A   Partly Cloudy
3:00 PM -4.0 °F -20.2 °F -16.6 °F 55% 30.38 in 9.0 mi SW 9.2 mph - N/A   Clear
4:00 PM -4.0 °F -22.1 °F -16.6 °F 55% 30.34 in 9.0 mi SW 11.5 mph - N/A   Mostly Cloudy
5:00 PM -2.2 °F -18.9 °F -16.6 °F 50% 30.32 in 9.0 mi SW 10.4 mph - N/A   Overcast
6:00 PM -2.2 °F -18.0 °F -14.8 °F 55% 30.30 in 9.0 mi SW 9.2 mph 17.3 mph N/A   Mostly Cloudy
7:00 PM -2.2 °F -18.0 °F -14.8 °F 55% 30.28 in 9.0 mi SW 9.2 mph - N/A   Clear
8:00 PM -2.2 °F -18.9 °F -16.6 °F 50% 30.26 in 9.0 mi SW 10.4 mph - N/A   Clear
9:00 PM -5.8 °F -21.2 °F -16.6 °F 60% 30.24 in 9.0 mi SSW 8.1 mph - N/A   Clear
10:00 PM -5.8 °F -23.4 °F -18.4 °F 55% 30.22 in 9.0 mi SW 10.4 mph - N/A   Mostly Cloudy
11:00 PM -5.8 °F -24.4 °F -16.6 °F 60% 30.20 in 9.0 mi SW 11.5 mph 18.4 mph N/A   Overcast